Time,TemperatureF,DewpointF,PressureIn,WindDirection,WindDirectionDegrees,WindSpeedMPH,WindSpeedGustMPH,Humidity,HourlyPrecipIn,Conditions,Clouds,dailyrainin,SolarRadiationWatts/m^2,SoftwareType,DateUTC
2013-04-02 00:03:00,20.3,15.1,30.35,ESE,109,5.0,5.0,80,0.00,,CLR,0.00,0.00,VWS V14.00,2013-04-02 05:03:00,
2013-04-02 00:08:00,20.4,14.9,30.35,ESE,109,4.0,5.0,79,0.00,,CLR,0.00,0.00,VWS V14.00,2013-04-02 05:08:00,
2013-04-02 00:13:00,20.3,15.1,30.35,ESE,109,4.0,7.0,80,0.00,,CLR,0.00,0.00,VWS V14.00,2013-04-02 05:13:00,
2013-04-02 00:19:00,20.1,14.9,30.35,ESE,109,5.0,7.0,80,0.00,,CLR,0.00,0.00,VWS V14.00,2013-04-02 05:19:00,
2013-04-02 00:24:00,20.1,14.9,30.35,ESE,108,3.0,7.0,80,0.00,,CLR,0.00,0.00,VWS V14.00,2013-04-02 05:24:00,
2013-04-02 00:29:00,20.0,14.8,30.35,ESE,108,4.0,7.0,80,0.00,,CLR,0.00,0.00,VWS V14.00,2013-04-02 05:29:00,
2013-04-02 00:34:00,19.8,14.9,30.35,ESE,109,3.0,7.0,81,0.00,,CLR,0.00,0.00,VWS V14.00,2013-04-02 05:34:00,
2013-04-02 00:39:00,19.8,14.9,30.35,ESE,108,5.0,7.0,81,0.00,,CLR,0.00,0.00,VWS V14.00,2013-04-02 05:39:00,
2013-04-02 00:44:00,19.9,15.0,30.35,ESE,108,5.0,7.0,81,0.00,,CLR,0.00,0.00,VWS V14.00,2013-04-02 05:44:00,
2013-04-02 00:49:00,19.8,14.9,30.35,ESE,108,3.0,7.0,81,0.00,,CLR,0.00,0.00,VWS V14.00,2013-04-02 05:49:00,
2013-04-02 00:55:00,19.7,14.8,30.35,ESE,108,4.0,7.0,81,0.00,,CLR,0.00,0.00,VWS V14.00,2013-04-02 05:55:00,
2013-04-02 01:00:00,19.6,14.7,30.35,ESE,108,4.0,7.0,81,0.00,,CLR,0.00,0.00,VWS V14.00,2013-04-02 06:00:00,
2013-04-02 01:05:00,19.5,14.6,30.35,ESE,108,3.0,5.0,81,0.00,,CLR,0.00,0.00,VWS V14.00,2013-04-02 06:05:00,
2013-04-02 01:10:00,19.5,14.6,30.35,ESE,108,3.0,5.0,81,0.00,,CLR,0.00,0.00,VWS V14.00,2013-04-02 06:10:00,
2013-04-02 01:15:00,19.5,14.9,30.35,ESE,108,4.0,7.0,82,0.00,,CLR,0.00,0.00,VWS V14.00,2013-04-02 06:15:00,
2013-04-02 01:20:00,19.4,15.1,30.35,ESE,108,3.0,7.0,83,0.00,,CLR,0.00,0.00,VWS V14.00,2013-04-02 06:20:00,
2013-04-02 01:25:00,19.3,14.7,30.35,ESE,108,4.0,7.0,82,0.00,,CLR,0.00,0.00,VWS V14.00,2013-04-02 06:25:00,
2013-04-02 01:30:00,19.3,14.7,30.35,ESE,108,4.0,7.0,82,0.00,,CLR,0.00,0.00,VWS V14.00,2013-04-02 06:30:00,
2013-04-02 01:35:00,19.2,14.6,30.35,ESE,108,4.0,5.0,82,0.00,,CLR,0.00,0.00,VWS V14.00,2013-04-02 06:35:00,
2013-04-02 01:40:00,19.3,14.7,30.35,ESE,108,5.0,5.0,82,0.00,,CLR,0.00,0.00,VWS V14.00,2013-04-02 06:40:00,
2013-04-02 01:45:00,19.3,15.0,30.35,ESE,108,4.0,5.0,83,0.00,,CLR,0.00,0.00,VWS V14.00,2013-04-02 06:45:00,
2013-04-02 01:50:00,19.2,14.9,30.35,ESE,108,3.0,5.0,83,0.00,,CLR,0.00,0.00,VWS V14.00,2013-04-02 06:50:00,
2013-04-02 01:57:00,19.1,14.8,30.35,ESE,108,3.0,5.0,83,0.00,,CLR,0.00,0.00,VWS V14.00,2013-04-02 06:57:00,
2013-04-02 02:02:00,19.2,14.9,30.35,ESE,108,5.0,5.0,83,0.00,,CLR,0.00,0.00,VWS V14.00,2013-04-02 07:02:00,
2013-04-02 02:07:00,19.3,15.0,30.35,ESE,108,3.0,5.0,83,0.00,,CLR,0.00,0.00,VWS V14.00,2013-04-02 07:07:00,
2013-04-02 02:12:00,19.4,14.8,30.35,ESE,108,4.0,5.0,82,0.00,,CLR,0.00,0.00,VWS V14.00,2013-04-02 07:12:00,
2013-04-02 02:17:00,19.4,15.1,30.35,ESE,108,5.0,5.0,83,0.00,,CLR,0.00,0.00,VWS V14.00,2013-04-02 07:17:00,
2013-04-02 02:22:00,19.3,15.0,30.35,ESE,108,4.0,5.0,83,0.00,,CLR,0.00,0.00,VWS V14.00,2013-04-02 07:22:00,
2013-04-02 02:27:00,19.2,14.9,30.35,ESE,108,3.0,5.0,83,0.00,,CLR,0.00,0.00,VWS V14.00,2013-04-02 07:27:00,
2013-04-02 02:32:00,19.0,15.0,30.35,ESE,108,4.0,4.0,84,0.00,,CLR,0.00,0.00,VWS V14.00,2013-04-02 07:32:00,
2013-04-02 02:38:00,18.9,14.9,30.35,ESE,108,4.0,5.0,84,0.00,,CLR,0.00,0.00,VWS V14.00,2013-04-02 07:38:00,
2013-04-02 02:43:00,18.8,15.1,30.35,ESE,108,3.0,5.0,85,0.00,,CLR,0.00,0.00,VWS V14.00,2013-04-02 07:43:00,
2013-04-02 02:48:00,18.8,15.1,30.35,ESE,108,3.0,5.0,85,0.00,,CLR,0.00,0.00,VWS V14.00,2013-04-02 07:48:00,
2013-04-02 02:53:00,18.9,14.9,30.35,ESE,108,2.0,5.0,84,0.00,,CLR,0.00,0.00,VWS V14.00,2013-04-02 07:53:00,
2013-04-02 02:58:00,18.9,14.9,30.35,ESE,108,1.0,5.0,84,0.00,,CLR,0.00,0.00,VWS V14.00,2013-04-02 07:58:00,
2013-04-02 03:03:00,18.7,14.7,30.35,ESE,108,1.0,2.0,84,0.00,,CLR,0.00,0.00,VWS V14.00,2013-04-02 08:03:00,
2013-04-02 03:08:00,18.6,14.6,30.35,ESE,108,2.0,2.0,84,0.00,,CLR,0.00,0.00,VWS V14.00,2013-04-02 08:08:00,
2013-04-02 03:13:00,18.7,16.8,30.35,ESE,108,3.0,4.0,92,0.00,,CLR,0.00,0.00,VWS V14.00,2013-04-02 08:13:00,
2013-04-02 03:18:00,18.8,14.8,30.35,ESE,108,3.0,4.0,84,0.00,,CLR,0.00,0.00,VWS V14.00,2013-04-02 08:18:00,
2013-04-02 03:23:00,18.8,14.8,30.35,ESE,108,2.0,4.0,84,0.00,,CLR,0.00,0.00,VWS V14.00,2013-04-02 08:23:00,
2013-04-02 03:29:00,18.6,14.6,30.34,ESE,108,3.0,4.0,84,0.00,,CLR,0.00,0.00,VWS V14.00,2013-04-02 08:29:00,
2013-04-02 03:34:00,18.5,14.5,30.34,ESE,108,4.0,5.0,84,0.00,,CLR,0.00,0.00,VWS V14.00,2013-04-02 08:34:00,
2013-04-02 03:39:00,18.4,14.4,30.34,ESE,108,5.0,5.0,84,0.00,,CLR,0.00,0.00,VWS V14.00,2013-04-02 08:39:00,
2013-04-02 03:44:00,18.3,14.3,30.34,East,99,6.0,6.0,84,0.00,,CLR,0.00,0.00,VWS V14.00,2013-04-02 08:44:00,
2013-04-02 03:49:00,18.3,14.3,30.34,East,98,6.0,6.0,84,0.00,,CLR,0.00,0.00,VWS V14.00,2013-04-02 08:49:00,
2013-04-02 03:54:00,18.2,14.2,30.34,East,91,6.0,7.0,84,0.00,,CLR,0.00,0.00,VWS V14.00,2013-04-02 08:54:00,
2013-04-02 03:59:00,18.4,14.4,30.34,East,86,7.0,8.0,84,0.00,,CLR,0.00,0.00,VWS V14.00,2013-04-02 08:59:00,
2013-04-02 04:04:00,18.3,14.3,30.33,East,86,7.0,7.0,84,0.00,,CLR,0.00,0.00,VWS V14.00,2013-04-02 09:04:00,
2013-04-02 04:09:00,18.2,14.2,30.33,ENE,78,7.0,9.0,84,0.00,,CLR,0.00,0.00,VWS V14.00,2013-04-02 09:09:00,
2013-04-02 04:14:00,18.4,14.6,30.33,ENE,74,7.0,9.0,85,0.00,,CLR,0.00,0.00,VWS V14.00,2013-04-02 09:14:00,
2013-04-02 04:19:00,18.4,14.6,30.33,ENE,74,8.0,9.0,85,0.00,,CLR,0.00,0.00,VWS V14.00,2013-04-02 09:19:00,
2013-04-02 04:24:00,18.5,14.8,30.34,ENE,72,8.0,9.0,85,0.00,,CLR,0.00,0.00,VWS V14.00,2013-04-02 09:24:00,
2013-04-02 04:29:00,18.5,14.5,30.33,ENE,71,8.0,9.0,84,0.00,,CLR,0.00,0.00,VWS V14.00,2013-04-02 09:29:00,
2013-04-02 04:34:00,18.5,14.5,30.33,ENE,71,8.0,9.0,84,0.00,,CLR,0.00,0.00,VWS V14.00,2013-04-02 09:34:00,
2013-04-02 04:39:00,18.6,14.6,30.33,ENE,71,5.0,9.0,84,0.00,,CLR,0.00,0.00,VWS V14.00,2013-04-02 09:39:00,
2013-04-02 04:45:00,18.7,14.4,30.34,ENE,71,4.0,9.0,83,0.00,,CLR,0.00,0.00,VWS V14.00,2013-04-02 09:45:00,
2013-04-02 04:50:00,19.0,14.7,30.34,ENE,71,4.0,9.0,83,0.00,,CLR,0.00,0.00,VWS V14.00,2013-04-02 09:50:00,
2013-04-02 04:55:00,18.8,14.5,30.34,ENE,71,3.0,9.0,83,0.00,,CLR,0.00,0.00,VWS V14.00,2013-04-02 09:55:00,
2013-04-02 05:00:00,19.1,14.8,30.34,ENE,71,4.0,9.0,83,0.00,,CLR,0.00,0.00,VWS V14.00,2013-04-02 10:00:00,
2013-04-02 05:05:00,19.0,14.4,30.33,ENE,71,3.0,4.0,82,0.00,,CLR,0.00,0.00,VWS V14.00,2013-04-02 10:05:00,
2013-04-02 05:10:00,19.1,14.5,30.34,ENE,71,4.0,4.0,82,0.00,,CLR,0.00,0.00,VWS V14.00,2013-04-02 10:10:00,
2013-04-02 05:15:00,18.8,14.2,30.34,ENE,71,3.0,4.0,82,0.00,,CLR,0.00,0.00,VWS V14.00,2013-04-02 10:15:00,
2013-04-02 05:20:00,18.5,14.2,30.34,ENE,71,3.0,4.0,83,0.00,,CLR,0.00,0.00,VWS V14.00,2013-04-02 10:20:00,
2013-04-02 05:25:00,18.6,14.3,30.34,ENE,71,3.0,4.0,83,0.00,,CLR,0.00,0.00,VWS V14.00,2013-04-02 10:25:00,
2013-04-02 05:31:00,18.5,14.2,30.34,ENE,71,5.0,5.0,83,0.00,,CLR,0.00,0.00,VWS V14.00,2013-04-02 10:31:00,
2013-04-02 05:36:00,18.4,14.1,30.34,ENE,71,5.0,7.0,83,0.00,,CLR,0.00,0.00,VWS V14.00,2013-04-02 10:36:00,
2013-04-02 05:42:00,18.5,14.2,30.34,ENE,71,5.0,7.0,83,0.00,,CLR,0.00,0.00,VWS V14.00,2013-04-02 10:42:00,
2013-04-02 05:47:00,18.7,14.4,30.34,ENE,71,4.0,7.0,83,0.00,,CLR,0.00,0.00,VWS V14.00,2013-04-02 10:47:00,
2013-04-02 05:52:00,18.7,14.1,30.34,ENE,71,5.0,7.0,82,0.00,,CLR,0.00,0.00,VWS V14.00,2013-04-02 10:52:00,
2013-04-02 05:57:00,18.8,14.2,30.34,ENE,71,5.0,7.0,82,0.00,,CLR,0.00,0.00,VWS V14.00,2013-04-02 10:57:00,
2013-04-02 06:02:00,18.8,14.2,30.34,ENE,71,4.0,5.0,82,0.00,,CLR,0.00,0.00,VWS V14.00,2013-04-02 11:02:00,
2013-04-02 06:07:00,18.7,14.1,30.34,ENE,71,4.0,5.0,82,0.00,,CLR,0.00,0.00,VWS V14.00,2013-04-02 11:07:00,
2013-04-02 06:12:00,18.7,14.1,30.34,ENE,71,4.0,5.0,82,0.00,,CLR,0.00,0.00,VWS V14.00,2013-04-02 11:12:00,
2013-04-02 06:17:00,18.5,13.9,30.34,ENE,71,1.0,5.0,82,0.00,,CLR,0.00,0.00,VWS V14.00,2013-04-02 11:17:00,
2013-04-02 06:22:00,18.4,13.8,30.34,ENE,71,1.0,5.0,82,0.00,,CLR,0.00,0.00,VWS V14.00,2013-04-02 11:22:00,
2013-04-02 06:27:00,18.1,13.8,30.34,ENE,71,1.0,5.0,83,0.00,,CLR,0.00,0.00,VWS V14.00,2013-04-02 11:27:00,
2013-04-02 06:32:00,17.9,13.6,30.34,ENE,71,0.0,0.0,83,0.00,,CLR,0.00,0.00,VWS V14.00,2013-04-02 11:32:00,
2013-04-02 06:38:00,17.7,13.7,30.35,ENE,71,0.0,0.0,84,0.00,,CLR,0.00,0.00,VWS V14.00,2013-04-02 11:38:00,
2013-04-02 06:43:00,17.7,13.7,30.35,ENE,71,1.0,2.0,84,0.00,,CLR,0.00,0.00,VWS V14.00,2013-04-02 11:43:00,
2013-04-02 06:48:00,17.7,13.7,30.34,ENE,71,2.0,2.0,84,0.00,,CLR,0.00,0.00,VWS V14.00,2013-04-02 11:48:00,
2013-04-02 06:53:00,17.9,13.9,30.35,ENE,71,0.0,2.0,84,0.00,,CLR,0.00,0.00,VWS V14.00,2013-04-02 11:53:00,
2013-04-02 06:58:00,17.8,13.8,30.35,ENE,71,0.0,2.0,84,0.00,,CLR,0.00,0.00,VWS V14.00,2013-04-02 11:58:00,
2013-04-02 07:03:00,17.6,13.6,30.35,ENE,71,0.0,0.0,84,0.00,,CLR,0.00,0.00,VWS V14.00,2013-04-02 12:03:00,
2013-04-02 07:08:00,17.4,13.7,30.35,ENE,71,1.0,2.0,85,0.00,,CLR,0.00,0.00,VWS V14.00,2013-04-02 12:08:00,
2013-04-02 07:13:00,17.4,13.7,30.35,ENE,71,3.0,3.0,85,0.00,,CLR,0.00,0.00,VWS V14.00,2013-04-02 12:13:00,
2013-04-02 07:18:00,17.3,13.8,30.35,ENE,71,2.0,3.0,86,0.00,,CLR,0.00,5.00,VWS V14.00,2013-04-02 12:18:00,
2013-04-02 07:23:00,17.2,13.7,30.35,ENE,71,2.0,3.0,86,0.00,,CLR,0.00,7.00,VWS V14.00,2013-04-02 12:23:00,
2013-04-02 07:28:00,17.2,13.7,30.35,ENE,71,1.0,3.0,86,0.00,,CLR,0.00,11.00,VWS V14.00,2013-04-02 12:28:00,
2013-04-02 07:34:00,17.5,13.8,30.35,ENE,71,1.0,2.0,85,0.00,,CLR,0.00,14.00,VWS V14.00,2013-04-02 12:34:00,
2013-04-02 07:39:00,17.5,13.8,30.36,ENE,71,2.0,2.0,85,0.00,,CLR,0.00,18.00,VWS V14.00,2013-04-02 12:39:00,
2013-04-02 07:44:00,17.5,13.5,30.36,ENE,71,1.0,2.0,84,0.00,,CLR,0.00,21.00,VWS V14.00,2013-04-02 12:44:00,
2013-04-02 07:49:00,17.6,13.6,30.36,ENE,71,3.0,3.0,84,0.00,,CLR,0.00,23.00,VWS V14.00,2013-04-02 12:49:00,
2013-04-02 07:54:00,18.1,14.1,30.36,ENE,71,3.0,4.0,84,0.00,,CLR,0.00,26.00,VWS V14.00,2013-04-02 12:54:00,
2013-04-02 07:59:00,18.6,14.0,30.36,ENE,71,3.0,4.0,82,0.00,,CLR,0.00,28.00,VWS V14.00,2013-04-02 12:59:00,
2013-04-02 08:04:00,18.9,14.0,30.36,ENE,71,4.0,5.0,81,0.00,,CLR,0.00,30.00,VWS V14.00,2013-04-02 13:04:00,
2013-04-02 08:09:00,19.0,14.1,30.36,ENE,71,3.0,5.0,81,0.00,,CLR,0.00,33.00,VWS V14.00,2013-04-02 13:09:00,
2013-04-02 08:15:00,19.1,14.2,30.37,ENE,71,4.0,7.0,81,0.00,,CLR,0.00,35.00,VWS V14.00,2013-04-02 13:15:00,
2013-04-02 08:20:00,19.3,14.4,30.37,ENE,74,3.0,7.0,81,0.00,,CLR,0.00,37.00,VWS V14.00,2013-04-02 13:20:00,
2013-04-02 08:25:00,19.6,14.4,30.37,ENE,75,4.0,7.0,80,0.00,,CLR,0.00,69.00,VWS V14.00,2013-04-02 13:25:00,
2013-04-02 08:30:00,19.8,14.9,30.37,ENE,75,3.0,7.0,81,0.00,,CLR,0.00,151.00,VWS V14.00,2013-04-02 13:30:00,
2013-04-02 08:35:00,20.5,15.9,30.37,East,81,3.0,7.0,82,0.00,,CLR,0.00,169.00,VWS V14.00,2013-04-02 13:35:00,
2013-04-02 08:40:00,21.4,16.5,30.38,East,84,6.0,7.0,81,0.00,,CLR,0.00,188.00,VWS V14.00,2013-04-02 13:40:00,
2013-04-02 08:45:00,22.0,16.8,30.37,East,96,8.0,8.0,80,0.00,,CLR,0.00,204.00,VWS V14.00,2013-04-02 13:45:00,
2013-04-02 08:51:00,22.5,17.0,30.37,ESE,103,5.0,9.0,79,0.00,,CLR,0.00,225.00,VWS V14.00,2013-04-02 13:51:00,
2013-04-02 08:57:00,23.0,17.2,30.38,ESE,107,7.0,9.0,78,0.00,,CLR,0.00,244.00,VWS V14.00,2013-04-02 13:57:00,
2013-04-02 09:02:00,23.5,17.7,30.38,ESE,103,5.0,7.0,78,0.00,,CLR,0.00,258.00,VWS V14.00,2013-04-02 14:02:00,
2013-04-02 09:07:00,24.1,17.6,30.38,ESE,102,8.0,8.0,76,0.00,,CLR,0.00,267.00,VWS V14.00,2013-04-02 14:07:00,
2013-04-02 09:12:00,24.3,17.5,30.38,East,93,7.0,8.0,75,0.00,,CLR,0.00,285.00,VWS V14.00,2013-04-02 14:12:00,
2013-04-02 09:17:00,24.7,18.2,30.38,East,92,5.0,8.0,76,0.00,,CLR,0.00,301.00,VWS V14.00,2013-04-02 14:17:00,
2013-04-02 09:22:00,25.3,18.2,30.38,East,84,10.0,10.0,74,0.00,,CLR,0.00,316.00,VWS V14.00,2013-04-02 14:22:00,
2013-04-02 09:27:00,25.1,17.0,30.38,East,81,6.0,12.0,71,0.00,,CLR,0.00,332.00,VWS V14.00,2013-04-02 14:27:00,
2013-04-02 09:32:00,25.4,17.0,30.38,ENE,72,10.0,11.0,70,0.00,,CLR,0.00,346.00,VWS V14.00,2013-04-02 14:32:00,
2013-04-02 09:37:00,25.6,16.9,30.38,ENE,77,8.0,13.0,69,0.00,,CLR,0.00,362.00,VWS V14.00,2013-04-02 14:37:00,
2013-04-02 09:42:00,26.0,17.6,30.39,ENE,76,5.0,13.0,70,0.00,,CLR,0.00,378.00,VWS V14.00,2013-04-02 14:42:00,
2013-04-02 09:48:00,26.2,18.1,30.39,East,85,9.0,13.0,71,0.00,,CLR,0.00,394.00,VWS V14.00,2013-04-02 14:48:00,
2013-04-02 09:53:00,26.2,18.4,30.39,East,85,11.0,14.0,72,0.00,,CLR,0.00,410.00,VWS V14.00,2013-04-02 14:53:00,
2013-04-02 09:58:00,26.0,17.6,30.39,East,100,13.0,15.0,70,0.00,,CLR,0.00,424.00,VWS V14.00,2013-04-02 14:58:00,
2013-04-02 10:03:00,25.6,17.2,30.39,East,82,11.0,14.0,70,0.00,,CLR,0.00,438.00,VWS V14.00,2013-04-02 15:03:00,
2013-04-02 10:08:00,25.9,18.5,30.39,ESE,103,12.0,15.0,73,0.00,,CLR,0.00,454.00,VWS V14.00,2013-04-02 15:08:00,
2013-04-02 10:13:00,26.3,17.5,30.39,East,101,9.0,15.0,69,0.00,,CLR,0.00,468.00,VWS V14.00,2013-04-02 15:13:00,
2013-04-02 10:18:00,26.0,16.9,30.39,East,88,11.0,15.0,68,0.00,,CLR,0.00,483.00,VWS V14.00,2013-04-02 15:18:00,
2013-04-02 10:23:00,26.3,17.9,30.39,East,98,11.0,15.0,70,0.00,,CLR,0.00,496.00,VWS V14.00,2013-04-02 15:23:00,
2013-04-02 10:28:00,27.3,18.8,30.39,East,94,9.0,15.0,70,0.00,,CLR,0.00,510.00,VWS V14.00,2013-04-02 15:28:00,
2013-04-02 10:33:00,27.5,16.9,30.40,ESE,104,8.0,14.0,64,0.00,,CLR,0.00,526.00,VWS V14.00,2013-04-02 15:33:00,
2013-04-02 10:38:00,27.6,16.3,30.40,ESE,107,12.0,14.0,62,0.00,,CLR,0.00,538.00,VWS V14.00,2013-04-02 15:38:00,
2013-04-02 10:43:00,27.9,17.0,30.40,East,93,10.0,14.0,63,0.00,,CLR,0.00,550.00,VWS V14.00,2013-04-02 15:43:00,
2013-04-02 10:49:00,28.5,17.9,30.40,East,96,8.0,14.0,64,0.00,,CLR,0.00,564.00,VWS V14.00,2013-04-02 15:49:00,
2013-04-02 10:55:00,28.8,17.1,30.39,ESE,115,9.0,15.0,61,0.00,,CLR,0.00,578.00,VWS V14.00,2013-04-02 15:55:00,
2013-04-02 11:00:00,28.8,17.1,30.40,ESE,107,9.0,15.0,61,0.00,,CLR,0.00,591.00,VWS V14.00,2013-04-02 16:00:00,
2013-04-02 11:05:00,29.0,16.5,30.39,East,95,13.0,15.0,59,0.00,,CLR,0.00,603.00,VWS V14.00,2013-04-02 16:05:00,
2013-04-02 11:10:00,28.4,15.5,30.39,East,97,16.0,17.0,58,0.00,,CLR,0.00,615.00,VWS V14.00,2013-04-02 16:10:00,
2013-04-02 11:15:00,28.8,16.3,30.39,ESE,109,11.0,17.0,59,0.00,,CLR,0.00,628.00,VWS V14.00,2013-04-02 16:15:00,
2013-04-02 11:20:00,28.9,15.6,30.39,SE,132,10.0,17.0,57,0.00,,CLR,0.00,640.00,VWS V14.00,2013-04-02 16:20:00,
2013-04-02 11:27:00,29.4,15.7,30.39,SE,138,13.0,17.0,56,0.00,,CLR,0.00,652.00,VWS V14.00,2013-04-02 16:27:00,
2013-04-02 11:32:00,29.9,16.1,30.39,East,97,11.0,15.0,56,0.00,,CLR,0.00,664.00,VWS V14.00,2013-04-02 16:32:00,
2013-04-02 11:38:00,29.6,15.0,30.39,ESE,106,12.0,16.0,54,0.00,,CLR,0.00,675.00,VWS V14.00,2013-04-02 16:38:00,
2013-04-02 11:43:00,29.9,18.1,30.39,East,98,9.0,17.0,61,0.00,,CLR,0.00,684.00,VWS V14.00,2013-04-02 16:43:00,
2013-04-02 11:48:00,30.6,15.1,30.39,ESE,117,13.0,17.0,52,0.00,,CLR,0.00,694.00,VWS V14.00,2013-04-02 16:48:00,
2013-04-02 11:53:00,30.6,15.9,30.39,SE,130,14.0,17.0,54,0.00,,CLR,0.00,705.00,VWS V14.00,2013-04-02 16:53:00,
2013-04-02 11:58:00,30.7,15.6,30.39,East,85,15.0,17.0,53,0.00,,CLR,0.00,714.00,VWS V14.00,2013-04-02 16:58:00,
2013-04-02 12:03:00,30.6,14.2,30.39,ESE,122,11.0,14.0,50,0.00,,CLR,0.00,721.00,VWS V14.00,2013-04-02 17:03:00,
2013-04-02 12:09:00,31.2,14.7,30.39,East,93,9.0,16.0,50,0.00,,CLR,0.00,729.00,VWS V14.00,2013-04-02 17:09:00,
2013-04-02 12:14:00,30.9,13.1,30.39,East,86,8.0,16.0,47,0.00,,CLR,0.00,738.00,VWS V14.00,2013-04-02 17:14:00,
2013-04-02 12:19:00,31.1,15.5,30.40,ESE,114,9.0,16.0,52,0.00,,CLR,0.00,745.00,VWS V14.00,2013-04-02 17:19:00,
2013-04-02 12:25:00,31.5,15.5,30.40,SE,126,12.0,16.0,51,0.00,,CLR,0.00,752.00,VWS V14.00,2013-04-02 17:25:00,
2013-04-02 12:31:00,31.6,17.3,30.40,ESE,108,13.0,13.0,55,0.00,,CLR,0.00,759.00,VWS V14.00,2013-04-02 17:31:00,
2013-04-02 12:36:00,31.9,17.2,30.39,SE,128,9.0,13.0,54,0.00,,CLR,0.00,766.00,VWS V14.00,2013-04-02 17:36:00,
2013-04-02 12:41:00,32.2,17.9,30.40,SE,136,8.0,15.0,55,0.00,,CLR,0.00,772.00,VWS V14.00,2013-04-02 17:41:00,
2013-04-02 12:46:00,32.3,17.1,30.39,ESE,120,9.0,17.0,53,0.00,,CLR,0.00,777.00,VWS V14.00,2013-04-02 17:46:00,
2013-04-02 12:51:00,32.2,16.1,30.39,ESE,105,15.0,17.0,51,0.00,,CLR,0.00,782.00,VWS V14.00,2013-04-02 17:51:00,
2013-04-02 12:56:00,32.2,17.0,30.39,ESE,110,9.0,17.0,53,0.00,,CLR,0.00,788.00,VWS V14.00,2013-04-02 17:56:00,
2013-04-02 13:02:00,32.7,16.1,30.39,SE,135,11.0,11.0,50,0.00,,CLR,0.00,791.00,VWS V14.00,2013-04-02 18:02:00,
2013-04-02 13:07:00,33.1,17.4,30.39,ESE,117,16.0,16.0,52,0.00,,CLR,0.00,795.00,VWS V14.00,2013-04-02 18:07:00,
2013-04-02 13:13:00,33.3,17.1,30.38,ESE,104,9.0,16.0,51,0.00,,CLR,0.00,800.00,VWS V14.00,2013-04-02 18:13:00,
2013-04-02 13:18:00,33.5,15.4,30.38,SE,124,11.0,16.0,47,0.00,,CLR,0.00,802.00,VWS V14.00,2013-04-02 18:18:00,
2013-04-02 13:24:00,34.0,17.8,30.38,SE,146,13.0,16.0,51,0.00,,CLR,0.00,803.00,VWS V14.00,2013-04-02 18:24:00,
2013-04-02 13:29:00,33.5,16.9,30.38,SE,141,10.0,16.0,50,0.00,,CLR,0.00,805.00,VWS V14.00,2013-04-02 18:29:00,
2013-04-02 13:34:00,34.1,18.3,30.38,East,101,11.0,12.0,52,0.00,,CLR,0.00,810.00,VWS V14.00,2013-04-02 18:34:00,
2013-04-02 13:40:00,34.4,14.8,30.38,SE,125,8.0,18.0,44,0.00,,CLR,0.00,810.00,VWS V14.00,2013-04-02 18:40:00,
2013-04-02 13:47:00,34.6,16.5,30.38,ESE,118,14.0,18.0,47,0.00,,CLR,0.00,812.00,VWS V14.00,2013-04-02 18:47:00,
2013-04-02 13:52:00,34.8,16.6,30.38,SE,128,9.0,18.0,47,0.00,,CLR,0.00,809.00,VWS V14.00,2013-04-02 18:52:00,
2013-04-02 13:57:00,35.1,16.9,30.38,ESE,105,10.0,18.0,47,0.00,,CLR,0.00,810.00,VWS V14.00,2013-04-02 18:57:00,
2013-04-02 14:03:00,35.6,17.9,30.38,ESE,109,9.0,13.0,48,0.00,,CLR,0.00,809.00,VWS V14.00,2013-04-02 19:03:00,
2013-04-02 14:09:00,35.6,18.3,30.38,ESE,111,11.0,15.0,49,0.00,,CLR,0.00,809.00,VWS V14.00,2013-04-02 19:09:00,
2013-04-02 14:14:00,35.7,18.0,30.38,East,86,8.0,15.0,48,0.00,,CLR,0.00,809.00,VWS V14.00,2013-04-02 19:14:00,
2013-04-02 14:19:00,35.7,18.9,30.37,SE,133,8.0,15.0,50,0.00,,CLR,0.00,805.00,VWS V14.00,2013-04-02 19:19:00,
2013-04-02 14:24:00,36.4,19.1,30.37,SE,129,11.0,15.0,49,0.00,,CLR,0.00,802.00,VWS V14.00,2013-04-02 19:24:00,
2013-04-02 14:29:00,36.8,19.9,30.37,SE,142,10.0,15.0,50,0.00,,CLR,0.00,796.00,VWS V14.00,2013-04-02 19:29:00,
2013-04-02 14:34:00,36.6,18.8,30.37,SE,129,13.0,13.0,48,0.00,,CLR,0.00,796.00,VWS V14.00,2013-04-02 19:34:00,
2013-04-02 14:40:00,36.6,19.7,30.37,SE,128,6.0,14.0,50,0.00,,CLR,0.00,793.00,VWS V14.00,2013-04-02 19:40:00,
2013-04-02 14:45:00,36.9,20.5,30.37,SE,141,12.0,14.0,51,0.00,,CLR,0.00,788.00,VWS V14.00,2013-04-02 19:45:00,
2013-04-02 14:50:00,36.6,20.2,30.37,SE,132,10.0,14.0,51,0.00,,CLR,0.00,786.00,VWS V14.00,2013-04-02 19:50:00,
2013-04-02 14:56:00,36.9,20.5,30.36,SE,129,9.0,14.0,51,0.00,,CLR,0.00,779.00,VWS V14.00,2013-04-02 19:56:00,
2013-04-02 15:01:00,37.5,20.6,30.36,SE,126,7.0,12.0,50,0.00,,CLR,0.00,772.00,VWS V14.00,2013-04-02 20:01:00,
2013-04-02 15:07:00,37.7,19.3,30.36,East,94,9.0,13.0,47,0.00,,CLR,0.00,766.00,VWS V14.00,2013-04-02 20:07:00,
2013-04-02 15:12:00,37.5,19.6,30.36,SE,146,12.0,13.0,48,0.00,,CLR,0.00,758.00,VWS V14.00,2013-04-02 20:12:00,
2013-04-02 15:17:00,37.9,19.5,30.36,ESE,102,8.0,13.0,47,0.00,,CLR,0.00,754.00,VWS V14.00,2013-04-02 20:17:00,
2013-04-02 15:22:00,38.3,21.3,30.36,ESE,123,12.0,14.0,50,0.00,,CLR,0.00,745.00,VWS V14.00,2013-04-02 20:22:00,
2013-04-02 15:27:00,38.4,20.9,30.35,East,98,8.0,14.0,49,0.00,,CLR,0.00,738.00,VWS V14.00,2013-04-02 20:27:00,
2013-04-02 15:33:00,38.7,21.7,30.35,ESE,116,10.0,14.0,50,0.00,,CLR,0.00,731.00,VWS V14.00,2013-04-02 20:33:00,
2013-04-02 15:38:00,38.9,21.9,30.35,ESE,117,9.0,14.0,50,0.00,,CLR,0.00,721.00,VWS V14.00,2013-04-02 20:38:00,
2013-04-02 15:43:00,39.0,21.5,30.35,East,92,11.0,15.0,49,0.00,,CLR,0.00,714.00,VWS V14.00,2013-04-02 20:43:00,
2013-04-02 15:48:00,39.1,21.1,30.35,SE,124,8.0,15.0,48,0.00,,CLR,0.00,703.00,VWS V14.00,2013-04-02 20:48:00,
2013-04-02 15:54:00,38.9,21.4,30.35,ESE,105,9.0,15.0,49,0.00,,CLR,0.00,691.00,VWS V14.00,2013-04-02 20:54:00,
2013-04-02 16:00:00,39.0,21.5,30.34,East,98,9.0,15.0,49,0.00,,CLR,0.00,684.00,VWS V14.00,2013-04-02 21:00:00,
2013-04-02 16:07:00,39.4,22.3,30.34,SE,126,11.0,18.0,50,0.00,,CLR,0.00,670.00,VWS V14.00,2013-04-02 21:07:00,
2013-04-02 16:12:00,39.4,21.8,30.34,ESE,121,11.0,18.0,49,0.00,,CLR,0.00,659.00,VWS V14.00,2013-04-02 21:12:00,
2013-04-02 16:17:00,39.8,22.7,30.34,ESE,105,9.0,18.0,50,0.00,,CLR,0.00,647.00,VWS V14.00,2013-04-02 21:17:00,
2013-04-02 16:22:00,39.7,21.1,30.33,ESE,121,11.0,18.0,47,0.00,,CLR,0.00,638.00,VWS V14.00,2013-04-02 21:22:00,
2013-04-02 16:28:00,39.8,21.7,30.33,East,97,9.0,18.0,48,0.00,,CLR,0.00,626.00,VWS V14.00,2013-04-02 21:28:00,
2013-04-02 16:33:00,39.7,22.1,30.33,ESE,107,11.0,16.0,49,0.00,,CLR,0.00,612.00,VWS V14.00,2013-04-02 21:33:00,
2013-04-02 16:38:00,39.8,22.2,30.33,East,94,9.0,16.0,49,0.00,,CLR,0.00,599.00,VWS V14.00,2013-04-02 21:38:00,
2013-04-02 16:44:00,40.0,22.4,30.33,ESE,121,14.0,16.0,49,0.00,,CLR,0.00,584.00,VWS V14.00,2013-04-02 21:44:00,
2013-04-02 16:50:00,39.8,21.7,30.32,ESE,103,10.0,18.0,48,0.00,,CLR,0.00,570.00,VWS V14.00,2013-04-02 21:50:00,
2013-04-02 16:55:00,40.0,21.4,30.32,ESE,121,15.0,18.0,47,0.00,,CLR,0.00,557.00,VWS V14.00,2013-04-02 21:55:00,
2013-04-02 17:00:00,39.8,22.2,30.32,East,97,10.0,10.0,49,0.00,,CLR,0.00,543.00,VWS V14.00,2013-04-02 22:00:00,
2013-04-02 17:05:00,40.0,22.9,30.32,East,92,17.0,17.0,50,0.00,,CLR,0.00,529.00,VWS V14.00,2013-04-02 22:05:00,
2013-04-02 17:10:00,39.8,23.2,30.32,ESE,111,10.0,18.0,51,0.00,,CLR,0.00,519.00,VWS V14.00,2013-04-02 22:10:00,
2013-04-02 17:15:00,39.6,22.0,30.32,ESE,103,11.0,18.0,49,0.00,,CLR,0.00,503.00,VWS V14.00,2013-04-02 22:15:00,
2013-04-02 17:21:00,39.8,23.6,30.32,ESE,110,8.0,18.0,52,0.00,,CLR,0.00,489.00,VWS V14.00,2013-04-02 22:21:00,
2013-04-02 17:26:00,39.7,22.6,30.32,ESE,116,12.0,18.0,50,0.00,,CLR,0.00,473.00,VWS V14.00,2013-04-02 22:26:00,
2013-04-02 17:32:00,39.8,23.6,30.31,SE,126,12.0,15.0,52,0.00,,CLR,0.00,455.00,VWS V14.00,2013-04-02 22:32:00,
2013-04-02 17:37:00,39.3,23.2,30.32,SE,134,8.0,17.0,52,0.00,,CLR,0.00,439.00,VWS V14.00,2013-04-02 22:37:00,
2013-04-02 17:42:00,39.0,22.9,30.31,ESE,117,16.0,18.0,52,0.00,,CLR,0.00,424.00,VWS V14.00,2013-04-02 22:42:00,
2013-04-02 17:48:00,38.9,23.2,30.32,ESE,108,15.0,18.0,53,0.00,,CLR,0.00,410.00,VWS V14.00,2013-04-02 22:48:00,
2013-04-02 17:53:00,38.8,24.0,30.31,ESE,103,14.0,18.0,55,0.00,,CLR,0.00,394.00,VWS V14.00,2013-04-02 22:53:00,
2013-04-02 17:58:00,38.6,24.3,30.31,East,82,13.0,18.0,56,0.00,,CLR,0.00,378.00,VWS V14.00,2013-04-02 22:58:00,
2013-04-02 18:03:00,38.2,23.9,30.31,ESE,103,17.0,17.0,56,0.00,,CLR,0.00,360.00,VWS V14.00,2013-04-02 23:03:00,
2013-04-02 18:08:00,38.0,23.7,30.31,East,94,15.0,18.0,56,0.00,,CLR,0.00,346.00,VWS V14.00,2013-04-02 23:08:00,
2013-04-02 18:13:00,38.0,23.7,30.31,ESE,114,15.0,18.0,56,0.00,,CLR,0.00,330.00,VWS V14.00,2013-04-02 23:13:00,
2013-04-02 18:19:00,38.1,24.2,30.31,ESE,117,12.0,18.0,57,0.00,,CLR,0.00,311.00,VWS V14.00,2013-04-02 23:19:00,
2013-04-02 18:24:00,37.9,24.0,30.31,East,90,17.0,22.0,57,0.00,,CLR,0.00,295.00,VWS V14.00,2013-04-02 23:24:00,
2013-04-02 18:29:00,37.4,23.1,30.31,East,94,13.0,22.0,56,0.00,,CLR,0.00,276.00,VWS V14.00,2013-04-02 23:29:00,
2013-04-02 18:37:00,37.2,23.8,30.31,East,98,18.0,19.0,58,0.00,,CLR,0.00,248.00,VWS V14.00,2013-04-02 23:37:00,
2013-04-02 18:42:00,36.6,24.0,30.30,ESE,112,16.0,22.0,60,0.00,,CLR,0.00,227.00,VWS V14.00,2013-04-02 23:42:00,
2013-04-02 18:47:00,36.1,23.6,30.30,East,95,14.0,22.0,60,0.00,,CLR,0.00,207.00,VWS V14.00,2013-04-02 23:47:00,
2013-04-02 18:52:00,35.6,23.5,30.30,East,88,11.0,22.0,61,0.00,,CLR,0.00,186.00,VWS V14.00,2013-04-02 23:52:00,
2013-04-02 18:57:00,35.2,23.9,30.30,ESE,113,11.0,22.0,63,0.00,,CLR,0.00,167.00,VWS V14.00,2013-04-02 23:57:00,
2013-04-02 19:03:00,35.0,23.7,30.30,East,100,17.0,18.0,63,0.00,,CLR,0.00,148.00,VWS V14.00,2013-04-03 00:03:00,
2013-04-02 19:08:00,34.7,23.8,30.30,East,98,18.0,22.0,64,0.00,,CLR,0.00,130.00,VWS V14.00,2013-04-03 00:08:00,
2013-04-02 19:13:00,34.3,23.8,30.30,ESE,102,14.0,22.0,65,0.00,,CLR,0.00,113.00,VWS V14.00,2013-04-03 00:13:00,
2013-04-02 19:18:00,33.9,23.8,30.30,ESE,105,12.0,22.0,66,0.00,,CLR,0.00,95.00,VWS V14.00,2013-04-03 00:18:00,
2013-04-02 19:24:00,33.8,24.0,30.30,ESE,110,15.0,22.0,67,0.00,,CLR,0.00,77.00,VWS V14.00,2013-04-03 00:24:00,
2013-04-02 19:29:00,33.6,23.8,30.30,ESE,103,10.0,22.0,67,0.00,,CLR,0.00,63.00,VWS V14.00,2013-04-03 00:29:00,
2013-04-02 19:34:00,33.3,23.9,30.30,East,96,13.0,17.0,68,0.00,,CLR,0.00,51.00,VWS V14.00,2013-04-03 00:34:00,
2013-04-02 19:39:00,33.0,23.6,30.29,East,88,10.0,19.0,68,0.00,,CLR,0.00,39.00,VWS V14.00,2013-04-03 00:39:00,
2013-04-02 19:45:00,32.6,23.6,30.29,ESE,105,13.0,19.0,69,0.00,,CLR,0.00,30.00,VWS V14.00,2013-04-03 00:45:00,
2013-04-02 19:50:00,32.1,23.4,30.29,ESE,103,16.0,19.0,70,0.00,,CLR,0.00,21.00,VWS V14.00,2013-04-03 00:50:00,
2013-04-02 19:58:00,31.5,23.5,30.28,East,101,13.0,20.0,72,0.00,,CLR,0.00,16.00,VWS V14.00,2013-04-03 00:58:00,
2013-04-02 20:03:00,31.1,23.1,30.28,East,96,14.0,17.0,72,0.00,,CLR,0.00,12.00,VWS V14.00,2013-04-03 01:03:00,
2013-04-02 20:08:00,30.7,23.1,30.28,East,99,10.0,17.0,73,0.00,,CLR,0.00,9.00,VWS V14.00,2013-04-03 01:08:00,
2013-04-02 20:13:00,30.4,23.1,30.28,ESE,106,11.0,19.0,74,0.00,,CLR,0.00,5.00,VWS V14.00,2013-04-03 01:13:00,
2013-04-02 20:18:00,30.2,22.9,30.27,ESE,112,13.0,21.0,74,0.00,,CLR,0.00,0.00,VWS V14.00,2013-04-03 01:18:00,
2013-04-02 20:23:00,30.1,22.5,30.27,East,99,15.0,21.0,73,0.00,,CLR,0.00,0.00,VWS V14.00,2013-04-03 01:23:00,
2013-04-02 20:28:00,30.0,22.4,30.27,ESE,103,11.0,21.0,73,0.00,,CLR,0.00,0.00,VWS V14.00,2013-04-03 01:28:00,
2013-04-02 20:34:00,29.9,22.3,30.27,ESE,103,11.0,11.0,73,0.00,,CLR,0.00,0.00,VWS V14.00,2013-04-03 01:34:00,
2013-04-02 20:39:00,29.7,22.4,30.27,ESE,104,18.0,21.0,74,0.00,,CLR,0.00,0.00,VWS V14.00,2013-04-03 01:39:00,
2013-04-02 20:44:00,29.6,22.4,30.27,East,99,14.0,21.0,74,0.00,,CLR,0.00,0.00,VWS V14.00,2013-04-03 01:44:00,
2013-04-02 20:49:00,29.5,22.2,30.27,East,94,14.0,21.0,74,0.00,,CLR,0.00,0.00,VWS V14.00,2013-04-03 01:49:00,
2013-04-02 20:54:00,29.3,22.1,30.27,East,98,13.0,21.0,74,0.00,,CLR,0.00,0.00,VWS V14.00,2013-04-03 01:54:00,
2013-04-02 20:59:00,29.2,22.0,30.27,East,100,14.0,21.0,74,0.00,,CLR,0.00,0.00,VWS V14.00,2013-04-03 01:59:00,
2013-04-02 21:05:00,29.1,22.2,30.27,ESE,118,13.0,21.0,75,0.00,,CLR,0.00,0.00,VWS V14.00,2013-04-03 02:05:00,
2013-04-02 21:10:00,29.0,22.1,30.27,ESE,121,17.0,23.0,75,0.00,,CLR,0.00,0.00,VWS V14.00,2013-04-03 02:10:00,
2013-04-02 21:15:00,28.9,22.0,30.28,ESE,110,15.0,23.0,75,0.00,,CLR,0.00,0.00,VWS V14.00,2013-04-03 02:15:00,
2013-04-02 21:20:00,28.8,21.9,30.27,SE,124,10.0,23.0,75,0.00,,CLR,0.00,0.00,VWS V14.00,2013-04-03 02:20:00,
2013-04-02 21:26:00,28.7,21.5,30.28,ESE,120,14.0,23.0,74,0.00,,CLR,0.00,0.00,VWS V14.00,2013-04-03 02:26:00,
2013-04-02 21:32:00,28.6,21.4,30.28,ESE,120,18.0,22.0,74,0.00,,CLR,0.00,0.00,VWS V14.00,2013-04-03 02:32:00,
2013-04-02 21:37:00,28.5,21.3,30.28,ESE,123,16.0,22.0,74,0.00,,CLR,0.00,0.00,VWS V14.00,2013-04-03 02:37:00,
2013-04-02 21:42:00,28.5,21.0,30.28,ESE,111,18.0,22.0,73,0.00,,CLR,0.00,0.00,VWS V14.00,2013-04-03 02:42:00,
2013-04-02 21:48:00,28.5,20.6,30.28,SE,130,17.0,22.0,72,0.00,,CLR,0.00,0.00,VWS V14.00,2013-04-03 02:48:00,
2013-04-02 21:53:00,28.5,20.6,30.28,ESE,120,16.0,22.0,72,0.00,,CLR,0.00,0.00,VWS V14.00,2013-04-03 02:53:00,
2013-04-02 21:58:00,28.4,20.2,30.28,SE,126,14.0,22.0,71,0.00,,CLR,0.00,0.00,VWS V14.00,2013-04-03 02:58:00,
2013-04-02 22:03:00,28.3,20.1,30.28,SE,127,13.0,20.0,71,0.00,,CLR,0.00,0.00,VWS V14.00,2013-04-03 03:03:00,
2013-04-02 22:08:00,28.2,20.0,30.28,SE,132,14.0,21.0,71,0.00,,CLR,0.00,0.00,VWS V14.00,2013-04-03 03:08:00,
2013-04-02 22:13:00,28.2,20.0,30.28,SE,130,13.0,21.0,71,0.00,,CLR,0.00,0.00,VWS V14.00,2013-04-03 03:13:00,
2013-04-02 22:20:00,28.0,19.5,30.28,SE,130,16.0,21.0,70,0.00,,CLR,0.00,0.00,VWS V14.00,2013-04-03 03:20:00,
2013-04-02 22:25:00,27.8,19.6,30.28,SE,136,13.0,21.0,71,0.00,,CLR,0.00,0.00,VWS V14.00,2013-04-03 03:25:00,
2013-04-02 22:30:00,27.6,19.8,30.28,SE,133,17.0,21.0,72,0.00,,CLR,0.00,0.00,VWS V14.00,2013-04-03 03:30:00,
2013-04-02 22:35:00,27.4,19.6,30.28,SE,134,14.0,19.0,72,0.00,,CLR,0.00,0.00,VWS V14.00,2013-04-03 03:35:00,
2013-04-02 22:41:00,27.2,19.7,30.28,SE,135,14.0,19.0,73,0.00,,CLR,0.00,0.00,VWS V14.00,2013-04-03 03:41:00,
2013-04-02 22:47:00,27.1,19.6,30.28,SE,128,12.0,20.0,73,0.00,,CLR,0.00,0.00,VWS V14.00,2013-04-03 03:47:00,
2013-04-02 22:52:00,27.0,19.8,30.27,SE,138,13.0,20.0,74,0.00,,CLR,0.00,0.00,VWS V14.00,2013-04-03 03:52:00,
2013-04-02 22:57:00,27.0,19.8,30.27,SE,130,13.0,20.0,74,0.00,,CLR,0.00,0.00,VWS V14.00,2013-04-03 03:57:00,
2013-04-02 23:00:00,26.9,19.7,30.27,SE,135,15.0,20.0,74,0.00,,CLR,0.00,0.00,VWS V14.00,2013-04-03 04:00:00,
2013-04-02 23:02:00,26.9,19.7,30.28,SE,130,14.0,17.0,74,0.00,,CLR,0.00,0.00,VWS V14.00,2013-04-03 04:02:00,
2013-04-02 23:03:00,26.8,19.6,30.27,SE,133,17.0,17.0,74,0.00,,CLR,0.00,0.00,VWS V14.00,2013-04-03 04:03:00,
2013-04-02 23:08:00,26.7,19.5,30.27,SE,132,13.0,18.0,74,0.00,,CLR,0.00,0.00,VWS V14.00,2013-04-03 04:08:00,
2013-04-02 23:14:00,26.6,19.8,30.27,SE,125,16.0,18.0,75,0.00,,CLR,0.00,0.00,VWS V14.00,2013-04-03 04:14:00,
2013-04-02 23:19:00,26.5,19.7,30.27,SE,136,15.0,18.0,75,0.00,,CLR,0.00,0.00,VWS V14.00,2013-04-03 04:19:00,
2013-04-02 23:24:00,26.4,19.6,30.27,SE,131,11.0,21.0,75,0.00,,CLR,0.00,0.00,VWS V14.00,2013-04-03 04:24:00,
2013-04-02 23:29:00,26.2,19.7,30.27,SE,136,15.0,21.0,76,0.00,,CLR,0.00,0.00,VWS V14.00,2013-04-03 04:29:00,
2013-04-02 23:34:00,26.1,19.6,30.27,SE,139,13.0,17.0,76,0.00,,CLR,0.00,0.00,VWS V14.00,2013-04-03 04:34:00,
2013-04-02 23:39:00,26.0,19.5,30.27,SE,136,17.0,18.0,76,0.00,,CLR,0.00,0.00,VWS V14.00,2013-04-03 04:39:00,
2013-04-02 23:44:00,25.9,19.7,30.27,SE,133,12.0,18.0,77,0.00,,CLR,0.00,0.00,VWS V14.00,2013-04-03 04:44:00,
2013-04-02 23:49:00,25.7,19.5,30.27,SE,138,16.0,18.0,77,0.00,,CLR,0.00,0.00,VWS V14.00,2013-04-03 04:49:00,
2013-04-02 23:54:00,25.7,19.5,30.27,SE,139,11.0,18.0,77,0.00,,CLR,0.00,0.00,VWS V14.00,2013-04-03 04:54:00,